AEE317 LZIB-LGPZ

Flight info

Callsign AEE317
Flight time N/A
Altitude 38000
Route VAMOG DCT KOPRY/N0451F370 DCT XELMI DCT BIGLO DCT RODON DCT PITAS UN732 KRK A14 MALED
Aircraft B737/M-SDE2E3FGHIRWXY/LB1

Departure

Time 2026-05-07 10:00
Airport M. R. Štefánik Airport (LZIB)

Arrival

Time N/A
Airport Aktion National Airport (LGPZ)
Time Latitude Longitude Altitude Speed Heading
2026-05-07 09:36 48.17126 17.20367 430 ft 0 kts 314°
2026-05-07 09:50 48.17113 17.20387 430 ft 4 kts 320°
2026-05-07 09:50 48.17091 17.20410 430 ft 4 kts 335°
2026-05-07 09:50 48.17067 17.20420 430 ft 4 kts 14°
2026-05-07 09:51 48.17054 17.20411 430 ft 1 kts 44°
2026-05-07 09:51 48.17053 17.20408 417 ft 0 kts 44°
2026-05-07 09:54 48.17065 17.20426 430 ft 6 kts 43°
2026-05-07 09:54 48.17116 17.20500 428 ft 14 kts 43°
2026-05-07 09:54 48.17164 17.20623 430 ft 14 kts 99°
2026-05-07 09:54 48.17104 17.20749 416 ft 16 kts 132°
2026-05-07 09:55 48.17021 17.20878 423 ft 18 kts 134°
2026-05-07 09:55 48.16927 17.21020 416 ft 20 kts 134°
2026-05-07 09:55 48.16828 17.21184 420 ft 21 kts 133°
2026-05-07 09:55 48.16724 17.21343 422 ft 21 kts 134°
2026-05-07 09:56 48.16622 17.21503 427 ft 21 kts 133°
2026-05-07 09:56 48.16518 17.21666 430 ft 22 kts 134°
2026-05-07 09:56 48.16411 17.21831 421 ft 22 kts 134°
2026-05-07 09:56 48.16303 17.21998 423 ft 22 kts 134°
2026-05-07 09:57 48.16194 17.22168 426 ft 23 kts 134°
2026-05-07 09:57 48.16084 17.22338 428 ft 23 kts 134°
2026-05-07 09:57 48.15973 17.22510 426 ft 23 kts 134°
2026-05-07 09:57 48.15859 17.22684 425 ft 23 kts 134°
2026-05-07 09:58 48.15752 17.22853 430 ft 20 kts 133°
2026-05-07 09:58 48.15692 17.23004 430 ft 15 kts 103°
2026-05-07 09:58 48.15684 17.23140 425 ft 11 kts 70°
2026-05-07 09:58 48.15729 17.23202 427 ft 8 kts 17°
2026-05-07 09:59 48.15782 17.23169 422 ft 15 kts 313°
2026-05-07 09:59 48.15964 17.22888 429 ft 69 kts 315°
2026-05-07 09:59 48.16454 17.22129 419 ft 131 kts 314°
2026-05-07 09:59 48.17175 17.20946 550 ft 169 kts 312°
2026-05-07 10:00 48.18027 17.19614 1055 ft 180 kts 314°
2026-05-07 10:00 48.19024 17.18445 1739 ft 186 kts 335°
2026-05-07 10:00 48.20313 17.18207 2494 ft 191 kts 12°
2026-05-07 10:00 48.21461 17.19247 3035 ft 212 kts 53°
2026-05-07 10:01 48.21905 17.21388 3521 ft 223 kts 86°
2026-05-07 10:01 48.22139 17.23718 4220 ft 228 kts 78°
2026-05-07 10:01 48.22327 17.25302 4796 ft 228 kts 81°
2026-05-07 10:01 48.22568 17.27663 5583 ft 231 kts 82°
2026-05-07 10:02 48.22803 17.30058 6348 ft 233 kts 82°
2026-05-07 10:02 48.23041 17.32480 7122 ft 237 kts 82°
2026-05-07 10:02 48.22997 17.34960 7755 ft 245 kts 109°
2026-05-07 10:02 48.22369 17.37485 8037 ft 273 kts 114°
2026-05-07 10:03 48.21622 17.40238 8536 ft 292 kts 114°
2026-05-07 10:03 48.20856 17.43099 9336 ft 299 kts 114°
2026-05-07 10:03 48.20084 17.46016 10233 ft 302 kts 114°
2026-05-07 10:03 48.19284 17.49025 10715 ft 322 kts 117°
2026-05-07 10:04 48.18014 17.51913 10915 ft 343 kts 136°
2026-05-07 10:04 48.16172 17.54335 11215 ft 360 kts 147°
2026-05-07 10:04 48.13911 17.55908 11864 ft 361 kts 167°
2026-05-07 10:04 48.11461 17.56706 12772 ft 360 kts 171°
2026-05-07 10:05 48.08992 17.57381 13602 ft 363 kts 172°
2026-05-07 10:05 48.06493 17.58050 14360 ft 368 kts 172°
2026-05-07 10:05 48.06172 17.58137 14452 ft 369 kts 172°
2026-05-07 10:05 48.03834 17.58785 15161 ft 372 kts 172°
2026-05-07 10:06 48.01281 17.59518 15951 ft 376 kts 172°
2026-05-07 10:06 47.98700 17.60279 16695 ft 380 kts 172°
2026-05-07 10:06 47.96092 17.61059 17393 ft 384 kts 171°
2026-05-07 10:06 47.95646 17.61193 17505 ft 385 kts 172°
2026-05-07 10:07 47.93484 17.61845 18054 ft 389 kts 172°
2026-05-07 10:07 47.90784 17.62660 18704 ft 393 kts 172°
2026-05-07 10:07 47.88124 17.63463 19378 ft 396 kts 172°
2026-05-07 10:07 47.85382 17.64290 20093 ft 398 kts 171°
2026-05-07 10:08 47.82661 17.65109 20740 ft 401 kts 171°
2026-05-07 10:08 47.79957 17.65847 21323 ft 402 kts 177°
2026-05-07 10:08 47.77174 17.65654 21888 ft 401 kts 193°
2026-05-07 10:08 47.74483 17.64541 22475 ft 402 kts 198°
2026-05-07 10:09 47.71806 17.63278 23006 ft 406 kts 198°
2026-05-07 10:09 47.69114 17.61975 23511 ft 409 kts 198°
2026-05-07 10:09 47.66401 17.60665 24010 ft 412 kts 198°
2026-05-07 10:09 47.63665 17.59357 24498 ft 414 kts 198°
2026-05-07 10:10 47.60912 17.58057 24990 ft 416 kts 198°
2026-05-07 10:10 47.58146 17.56763 25500 ft 417 kts 198°
2026-05-07 10:10 47.55370 17.55473 25951 ft 419 kts 198°
2026-05-07 10:10 47.52581 17.54182 26371 ft 421 kts 198°
2026-05-07 10:11 47.49772 17.52886 26786 ft 424 kts 198°
2026-05-07 10:11 47.46946 17.51584 27191 ft 426 kts 198°
2026-05-07 10:11 47.44109 17.50279 27562 ft 428 kts 198°
2026-05-07 10:11 47.41259 17.48968 27934 ft 429 kts 198°
2026-05-07 10:12 47.38401 17.47657 28296 ft 431 kts 198°
2026-05-07 10:12 47.35531 17.46340 28641 ft 433 kts 198°
2026-05-07 10:12 47.32696 17.45043 29099 ft 431 kts 198°
2026-05-07 10:12 47.29841 17.43738 29638 ft 428 kts 198°
2026-05-07 10:13 47.27007 17.42442 30159 ft 425 kts 198°
2026-05-07 10:13 47.24190 17.41155 30634 ft 423 kts 198°
2026-05-07 10:13 47.21385 17.39875 31081 ft 422 kts 199°
2026-05-07 10:13 47.18585 17.38598 31525 ft 420 kts 199°
2026-05-07 10:14 47.15801 17.37331 31961 ft 418 kts 199°
2026-05-07 10:14 47.13027 17.36070 32392 ft 416 kts 199°
2026-05-07 10:14 47.10464 17.34907 32551 ft 420 kts 199°
2026-05-07 10:15 47.04860 17.32364 32475 ft 420 kts 199°
2026-05-07 10:15 46.99324 17.29859 32479 ft 415 kts 199°
2026-05-07 10:16 46.93767 17.27349 32857 ft 419 kts 199°
2026-05-07 10:16 46.90989 17.26097 33247 ft 416 kts 199°
2026-05-07 10:16 46.88699 17.25066 33610 ft 414 kts 199°
2026-05-07 10:16 46.86000 17.23854 34008 ft 411 kts 199°
2026-05-07 10:17 46.83273 17.22628 34392 ft 409 kts 199°
2026-05-07 10:17 46.80553 17.21406 34696 ft 409 kts 199°
2026-05-07 10:17 46.77828 17.20183 34888 ft 411 kts 199°
2026-05-07 10:17 46.75085 17.18954 35118 ft 412 kts 199°
2026-05-07 10:18 46.72344 17.17726 35433 ft 411 kts 199°
2026-05-07 10:18 46.69655 17.16524 35680 ft 411 kts 199°
2026-05-07 10:18 46.66914 17.15300 35895 ft 412 kts 199°
2026-05-07 10:18 46.64172 17.14077 36112 ft 412 kts 199°
2026-05-07 10:19 46.61423 17.12852 36291 ft 414 kts 199°
2026-05-07 10:19 46.58668 17.11626 36491 ft 415 kts 199°
2026-05-07 10:19 46.55908 17.10398 36731 ft 414 kts 199°
2026-05-07 10:19 46.53169 17.09181 37040 ft 411 kts 199°
2026-05-07 10:20 46.50422 17.07963 37000 ft 412 kts 199°
2026-05-07 10:20 46.44968 17.05548 37015 ft 407 kts 199°
2026-05-07 10:21 46.39581 17.03164 37019 ft 403 kts 199°
2026-05-07 10:21 46.34226 17.00801 37015 ft 401 kts 199°
2026-05-07 10:22 46.28893 16.98451 37030 ft 400 kts 199°
2026-05-07 10:22 46.26169 16.97588 37008 ft 404 kts 188°
2026-05-07 10:22 46.23384 16.97475 37027 ft 408 kts 181°
2026-05-07 10:23 46.17753 16.99072 37032 ft 418 kts 167°
2026-05-07 10:23 46.12223 17.01716 37021 ft 421 kts 166°
2026-05-07 10:24 46.06655 17.04403 37020 ft 423 kts 166°
2026-05-07 10:24 46.01107 17.07035 37018 ft 424 kts 167°
2026-05-07 10:25 45.95571 17.09630 37010 ft 425 kts 167°
2026-05-07 10:25 45.90110 17.12178 37020 ft 426 kts 167°
2026-05-07 10:26 45.84610 17.14733 37013 ft 426 kts 167°
2026-05-07 10:26 45.79491 17.17107 37024 ft 426 kts 167°
2026-05-07 10:27 45.73900 17.19694 37035 ft 426 kts 167°
2026-05-07 10:27 45.68276 17.22295 37037 ft 426 kts 167°
2026-05-07 10:28 45.62646 17.24893 37045 ft 426 kts 167°
2026-05-07 10:28 45.57007 17.27488 37047 ft 425 kts 167°
2026-05-07 10:29 45.51372 17.30075 37045 ft 425 kts 167°
2026-05-07 10:29 45.45749 17.32653 37048 ft 425 kts 167°
2026-05-07 10:30 45.37333 17.36500 37046 ft 425 kts 167°
2026-05-07 10:30 45.31708 17.39063 37043 ft 424 kts 167°
2026-05-07 10:31 45.26092 17.41618 37046 ft 424 kts 167°
2026-05-07 10:31 45.20473 17.44168 37046 ft 424 kts 167°
2026-05-07 10:32 45.14853 17.46713 37051 ft 424 kts 167°
2026-05-07 10:32 45.09224 17.49258 37048 ft 425 kts 167°
2026-05-07 10:33 45.03584 17.51802 37046 ft 425 kts 167°
2026-05-07 10:33 44.97942 17.54342 37043 ft 426 kts 167°
2026-05-07 10:34 44.92283 17.56884 37048 ft 427 kts 167°
2026-05-07 10:34 44.86617 17.59424 37044 ft 427 kts 167°
2026-05-07 10:35 44.80944 17.61964 37045 ft 428 kts 167°
2026-05-07 10:35 44.75260 17.64502 37056 ft 428 kts 167°
2026-05-07 10:36 44.69583 17.67032 37055 ft 428 kts 167°
2026-05-07 10:36 44.63994 17.69517 37056 ft 428 kts 167°
2026-05-07 10:37 44.58337 17.72029 37058 ft 428 kts 167°
2026-05-07 10:37 44.52872 17.74449 37056 ft 428 kts 167°
2026-05-07 10:38 44.47642 17.76759 37056 ft 428 kts 167°
2026-05-07 10:38 44.42712 17.78934 37054 ft 428 kts 167°
2026-05-07 10:39 44.37885 17.81061 37056 ft 428 kts 167°
2026-05-07 10:39 44.32781 17.83305 37058 ft 428 kts 167°
2026-05-07 10:40 44.27958 17.85420 37058 ft 428 kts 167°
2026-05-07 10:40 44.23319 17.87453 37076 ft 427 kts 167°
2026-05-07 10:41 44.18523 17.89552 37072 ft 428 kts 167°
2026-05-07 10:41 44.13473 17.91757 37080 ft 428 kts 167°
2026-05-07 10:42 44.09355 17.93552 37079 ft 428 kts 167°
2026-05-07 10:42 44.04381 17.95715 37072 ft 429 kts 167°
2026-05-07 10:43 43.98964 17.98070 37075 ft 428 kts 167°
2026-05-07 10:43 43.93281 18.00534 37067 ft 428 kts 167°
2026-05-07 10:44 43.87588 18.03000 37079 ft 428 kts 167°
2026-05-07 10:44 43.81903 18.05455 37077 ft 428 kts 167°
2026-05-07 10:45 43.76235 18.07897 37072 ft 428 kts 167°
2026-05-07 10:45 43.70587 18.10328 37071 ft 428 kts 167°
2026-05-07 10:46 43.65158 18.12660 37083 ft 428 kts 167°
2026-05-07 10:46 43.59819 18.14949 37072 ft 429 kts 167°
2026-05-07 10:47 43.56536 18.16580 36975 ft 433 kts 161°
2026-05-07 10:47 43.53774 18.18029 37010 ft 431 kts 164°
2026-05-07 10:48 43.51033 18.19351 36987 ft 429 kts 168°
2026-05-07 10:48 43.48834 18.20124 37001 ft 426 kts 172°
2026-05-07 10:49 43.46058 18.20955 37067 ft 425 kts 171°
2026-05-07 10:49 43.43344 18.21885 37084 ft 426 kts 169°
2026-05-07 10:50 43.40223 18.23182 37036 ft 429 kts 165°
2026-05-07 10:50 43.34687 18.26016 37083 ft 429 kts 163°
2026-05-07 10:51 43.29178 18.28792 37090 ft 430 kts 165°
2026-05-07 10:51 43.26274 18.30119 37085 ft 429 kts 167°
2026-05-07 10:52 43.23249 18.31407 37099 ft 429 kts 166°
2026-05-07 10:52 43.20540 18.32722 37124 ft 429 kts 165°
2026-05-07 10:53 43.17924 18.33939 37158 ft 428 kts 166°
2026-05-07 10:53 43.15209 18.35129 37190 ft 428 kts 167°
2026-05-07 10:54 43.12507 18.36256 37141 ft 429 kts 168°
2026-05-07 10:54 43.09831 18.37396 37071 ft 431 kts 166°
2026-05-07 10:55 43.07194 18.38604 37116 ft 431 kts 165°
2026-05-07 10:55 43.04241 18.40020 37213 ft 429 kts 165°
2026-05-07 10:56 43.00783 18.41631 37112 ft 432 kts 166°
2026-05-07 10:56 42.97946 18.42957 36999 ft 436 kts 163°
2026-05-07 10:57 42.94684 18.44638 37026 ft 433 kts 165°
2026-05-07 10:57 42.93280 18.45292 37138 ft 430 kts 165°
2026-05-07 10:57 42.91968 18.45972 37282 ft 428 kts 161°
2026-05-07 10:58 42.89511 18.47852 37283 ft 435 kts 151°
2026-05-07 10:58 42.88282 18.48960 37129 ft 439 kts 152°
2026-05-07 10:58 42.87068 18.50019 36961 ft 442 kts 153°
2026-05-07 10:59 42.84424 18.52116 36947 ft 438 kts 157°
2026-05-07 10:59 42.81906 18.53753 37076 ft 431 kts 161°